Home > Weather > Chula Vista > Past weeks

Flag for USA Past Weather in Chula Vista, California, USA — Yesterday and Last 2 Weeks

Now
62 °F

Partly sunny.


Feels Like: 62 °F
Forecast: 59 / 71 °F
Wind: 6 mph from Northwest

Location: Brown Field Municipal Airport

Current Time: May 26, 2016 at 7:30:15 PM

Latest Report: May 26, 2016 at 6:53 PM


Visibility: 10 mi

Pressure: 29.98 "Hg

Humidity: 75%

Dew Point: 54 °F

Location of Chula VistaLocation

Past Weather in Chula Vista — Graph

°F

Chula Vista Temperature Yesterday

Maximum temperature yesterday: 67 °F (at 12:00 PM)
Minimum temperature yesterday: 54 °F (at 5:53 AM)
Average temperature yesterday: 61 °F

High & Low Weather Summary for the Past Weeks

 TemperatureHumidityPressure
High70 °F (May 13, 1:53 PM)97% (May 19, 4:53 AM)30.11 "Hg (May 19, 4:53 AM)
Low52 °F (May 23, 2:53 AM)45% (May 21, 2:53 PM)29.85 "Hg (May 19, 5:53 PM)
Average61 °F76%29.97 "Hg
* Reported May 11 5:53 PM — May 26 5:53 PM, Chula Vista, Weather by CustomWeather, © 2016

Note: Actual official high and low records may vary slightly from our data, if they occured in-between our weather recording intervals... More about our weather records

Advertising

Chula Vista Weather History for the Previous 24 Hours

Scroll right to see more
 ConditionsComfort  
Time TempWeatherWind HumidityBarometerVisibility
5:53 PM
Thu, May 26
63 °FPartly sunny.8 mph70%29.98 "Hg10 mi
4:53 PM66 °FScattered clouds.8 mph65%29.98 "Hg10 mi
3:53 PM67 °FScattered clouds.8 mph63%29.99 "Hg10 mi
2:53 PM67 °FScattered clouds.7 mph61%30.01 "Hg10 mi
1:53 PM68 °FScattered clouds.9 mph59%30.03 "Hg10 mi
12:53 PM67 °FPartly sunny.5 mph61%30.04 "Hg10 mi
11:53 AM65 °FMostly cloudy.7 mph63%30.05 "Hg10 mi
10:53 AM64 °FMostly cloudy.10 mph68%30.06 "Hg10 mi
9:53 AM62 °FMostly cloudy.7 mph70%30.07 "Hg10 mi
8:53 AM61 °FMostly cloudy.No wind70%30.08 "Hg10 mi
8:04 AM60 °FMostly cloudy.3 mph75%30.08 "Hg10 mi
7:53 AM59 °FMore clouds than sun.3 mph78%30.08 "Hg10 mi
6:53 AM58 °FOvercast.5 mph81%30.07 "Hg10 mi
6:03 AM56 °FMostly cloudy.6 mph90%30.07 "Hg10 mi
5:53 AM56 °FMostly cloudy.6 mph87%30.06 "Hg10 mi
4:53 AM54 °FPassing clouds.5 mph90%30.06 "Hg10 mi
3:53 AM53 °FPassing clouds.3 mph86%30.06 "Hg10 mi
2:53 AM54 °FPassing clouds.3 mph90%30.06 "Hg10 mi
1:53 AM54 °FPassing clouds.No wind90%30.07 "Hg10 mi
12:53 AM57 °FClear.No wind81%30.08 "Hg10 mi
11:53 PM
Wed, May 25
56 °FClear.3 mph84%30.09 "Hg10 mi
11:01 PM58 °FPassing clouds.6 mph81%30.11 "Hg10 mi
9:53 PM58 °FPassing clouds.6 mph78%30.10 "Hg10 mi
8:53 PM58 °FClear.6 mph78%30.10 "Hg10 mi
7:53 PM59 °FSunny.5 mph75%30.09 "Hg10 mi
Weather by CustomWeather, © 2016

See weather overviewHow to use our weather pages